Location: Newark
(7.0858°N, 171.3717°E)
Time: 03:04:35
(UTC+00:00)

Transit 4A - Pass Details

Date: 29 November 2020
Orbit: 864 x 980 km, 66.8° (Epoch: 20 January)

Event Time Altitude Azimuth Distance (km) Brightness Sun altitude
Rises 17:57:00 0° 171° (S) 3,534 11.4 -8.6°
Reaches altitude 10° 18:00:06 10° 156° (SSE) 2,613 11.0 -7.9°
Maximum altitude 18:04:36 22° 108° (ESE) 1,937 10.9 -6.9°
Drops below altitude 10° 18:09:11 10° 60° (ENE) 2,670 10.9 -5.8°
Sets 18:12:21 0° 45° (NE) 3,632 11.3 -5.1°
